FW9355 Weather Reports


time (UTC)temp
C
wind
direction
speed
KPH
gust
KPH
rain 1hr
cm
rain 24hr
cm
rain mn
cm
humidity
%
barometer
mb
20260503200600 16 299 8.0 17.7 0.00 0.00 0.00 46 1013.7
20260503200101 17 140 4.8 17.7 0.00 0.00 0.00 47 1014.1
20260503195601 16 147 1.6 11.3 0.00 0.00 0.00 51 1014.3
20260503195100 15 180 1.6 9.7 0.00 0.00 0.00 51 1014.3
20260503194558 14 161 1.6 11.3 0.00 0.00 0.00 53 1014.5
20260503194100 14 240 1.6 11.3 0.00 0.00 0.00 51 1014.6
20260503193600 14 152 0.0 12.9 0.00 0.00 0.00 51 1014.8
20260503193120 14 0 1.6 12.9 0.00 0.00 0.00 50 1015.4
20260503192559 14 279 3.2 12.9 0.00 0.00 0.00 50 1015.6
20260503192102 14 250 0.0 8.0 0.00 0.00 0.00 51 1015.5
20260503191602 14 0 0.0 8.0 0.00 0.00 0.00 50 1015.1
20260503191101 13 0 0.0 9.7 0.00 0.00 0.00 49 1015.2
20260503190601 13 244 3.2 11.3 0.00 0.00 0.00 50 1015.2
20260503190059 13 164 3.2 12.9 0.00 0.00 0.00 50 1015.1
20260503185600 13 167 3.2 14.5 0.00 0.00 0.00 49 1015.1
20260503185100 13 0 3.2 14.5 0.00 0.00 0.00 49 1015.1
20260503184559 13 336 3.2 14.5 0.00 0.00 0.00 49 1015.3
20260503184102 13 282 1.6 9.7 0.00 0.00 0.00 51 1015.2
20260503183601 13 281 1.6 11.3 0.00 0.00 0.00 51 1015.4
20260503183105 13 0 0.0 22.5 0.00 0.00 0.00 50 1015.6
20260503182605 13 0 4.8 22.5 0.00 0.00 0.00 49 1015.8
20260503182100 13 286 12.9 22.5 0.00 0.00 0.00 48 1015.9
20260503181623 14 309 3.2 16.1 0.00 0.00 0.00 47 1016.0
20260503181100 14 261 3.2 17.7 0.00 0.00 0.00 48 1016.1
20260503180600 14 287 4.8 17.7 0.00 0.00 0.00 47 1016.0
20260503180134 15 299 4.8 16.1 0.00 0.00 0.00 46 1016.0
20260503175601 15 192 3.2 9.7 0.00 0.00 0.00 46 1016.2
20260503175100 15 207 3.2 12.9 0.00 0.00 0.00 44 1016.1
20260503174601 15 155 3.2 14.5 0.00 0.00 0.00 46 1016.2
20260503174101 15 159 3.2 14.5 0.00 0.00 0.00 46 1016.3
20260503173601 15 156 3.2 12.9 0.00 0.00 0.00 45 1016.4
20260503173102 15 261 1.6 20.9 0.00 0.00 0.00 46 1016.5
20260503172602 15 285 6.4 20.9 0.00 0.00 0.00 45 1016.5
20260503172100 15 275 3.2 17.7 0.00 0.00 0.00 44 1016.6
20260503171600 15 271 6.4 20.9 0.00 0.00 0.00 44 1016.7
20260503171101 15 273 8.0 20.9 0.00 0.00 0.00 43 1016.6
20260503170601 15 255 6.4 20.9 0.00 0.00 0.00 43 1016.7
20260503170105 16 263 6.4 20.9 0.00 0.00 0.00 43 1016.7
20260503150600 13 275 6.4 17.7 0.00 0.00 0.00 48 1017.8
20260503150107 13 290 6.4 17.7 0.00 0.00 0.00 48 1017.9
20260503131059 9 145 3.2 14.5 0.00 0.00 0.00 57 1018.3
20260503130600 9 273 3.2 14.5 0.00 0.00 0.00 58 1018.2
20260503120110 6 169 0.0 8.0 0.00 0.00 0.00 65 1018.4
20260503110559 5 0 1.6 14.5 0.00 0.00 0.00 67 1018.0
20260503100128 4 269 0.0 9.7 0.00 0.00 0.00 68 1017.6
20260503081602 3 0 0.0 3.2 0.00 0.00 0.00 73 1017.7
20260503081101 3 0 0.0 3.2 0.00 0.00 0.00 74 1017.7
20260503080602 3 0 0.0 3.2 0.00 0.00 0.00 74 1017.7
20260503072559 3 0 0.0 0.0 0.00 0.00 0.00 78 1017.7
20260503072059 3 0 0.0 0.0 0.00 0.00 0.00 78 1017.5
20260503071624 3 0 0.0 0.0 0.00 0.00 0.00 79 1017.6
20260503071100 3 0 0.0 0.0 0.00 0.00 0.00 79 1017.7
20260503070600 3 0 0.0 0.0 0.00 0.00 0.00 80 1017.6
20260503070113 3 0 0.0 0.0 0.00 0.00 0.00 80 1017.7
20260503060116 3 0 0.0 0.0 0.00 0.00 0.00 82 1018.1
20260503055101 3 0 0.0 0.0 0.00 0.00 0.00 82 1018.1
20260503054559 3 0 0.0 0.0 0.00 0.00 0.00 82 1018.2
20260503054101 3 0 0.0 0.0 0.00 0.00 0.00 81 1018.3
20260503053601 3 0 0.0 0.0 0.00 0.00 0.00 81 1018.3
20260503053103 3 0 0.0 0.0 0.00 0.00 0.00 81 1018.3
20260503052603 3 0 0.0 0.0 0.00 0.00 0.00 81 1018.4
20260503052101 3 0 0.0 0.0 0.00 0.00 0.00 81 1018.3
20260503051600 3 0 0.0 0.0 0.00 0.00 0.00 81 1018.4
20260503051101 3 0 0.0 0.0 0.00 0.00 0.00 81 1018.4
20260503050603 3 0 0.0 0.0 0.00 0.00 0.00 81 1018.4
20260503050059 3 0 0.0 0.0 0.00 0.00 0.00 81 1018.5
20260503045603 3 0 0.0 0.0 0.00 0.00 0.00 81 1018.5
20260503045102 3 0 0.0 0.0 0.00 0.00 0.00 81 1018.4
20260503044628 3 0 0.0 0.0 0.00 0.00 0.00 81 1018.5
20260503044102 3 0 0.0 0.0 0.00 0.00 0.00 80 1018.3
20260503043601 3 0 0.0 0.0 0.00 0.00 0.00 79 1018.2
20260503043101 3 0 0.0 0.0 0.00 0.00 0.00 79 1018.4
20260503042601 3 0 0.0 0.0 0.00 0.00 0.00 78 1018.4
20260503042101 3 0 0.0 0.0 0.00 0.00 0.00 78 1018.4
20260503041601 3 0 0.0 0.0 0.00 0.00 0.00 78 1018.3
20260503041101 3 0 0.0 0.0 0.00 0.00 0.00 76 1018.3
20260503040601 3 0 0.0 0.0 0.00 0.00 0.00 75 1018.3
20260503040107 3 0 0.0 0.0 0.00 0.00 0.00 75 1018.3
20260503035603 3 0 0.0 0.0 0.00 0.00 0.00 74 1018.4
20260503035103 3 0 0.0 0.0 0.00 0.00 0.00 74 1018.3
20260503034602 3 0 0.0 0.0 0.00 0.00 0.00 73 1018.4
20260503034102 4 0 0.0 0.0 0.00 0.00 0.00 73 1018.4
20260503033606 4 0 0.0 1.6 0.00 0.00 0.00 72 1018.5
20260503033111 3 0 0.0 1.6 0.00 0.00 0.00 71 1018.6
20260503032601 4 0 0.0 1.6 0.00 0.00 0.00 72 1018.5
20260503032059 4 0 0.0 1.6 0.00 0.00 0.00 72 1018.5
20260503031601 4 0 0.0 0.0 0.00 0.00 0.00 72 1018.5
20260503031101 4 0 0.0 0.0 0.00 0.00 0.00 70 1018.5
20260503030639 4 0 0.0 0.0 0.00 0.00 0.00 70 1018.5
20260503030109 4 0 0.0 0.0 0.00 0.00 0.00 69 1018.5
20260503025606 4 0 0.0 0.0 0.00 0.00 0.00 68 1018.7
20260503025056 4 0 0.0 0.0 0.00 0.00 0.00 67 1018.5
20260503024602 5 0 0.0 1.6 0.00 0.00 0.00 67 1018.4
20260503024101 5 0 0.0 1.6 0.00 0.00 0.00 67 1018.4
20260503023557 5 0 0.0 0.0 0.00 0.00 0.00 67 1018.5
20260503023102 5 0 0.0 0.0 0.00 0.00 0.00 66 1018.4
20260503022601 5 0 0.0 1.6 0.00 0.00 0.00 65 1018.4
20260503022101 5 0 0.0 1.6 0.00 0.00 0.00 65 1018.4
20260503021604 5 0 0.0 0.0 0.00 0.00 0.00 64 1018.5
20260503021103 5 0 0.0 0.0 0.00 0.00 0.00 64 1018.4
20260503020604 5 0 0.0 0.0 0.00 0.00 0.00 64 1018.3
20260503020115 5 0 0.0 0.0 0.00 0.00 0.00 63 1018.3
20260503015602 6 0 0.0 0.0 0.00 0.00 0.00 64 1018.2
20260503015132 6 0 0.0 0.0 0.00 0.00 0.00 64 1018.1
20260503014610 6 0 0.0 0.0 0.00 0.00 0.00 63 1018.1
20260503014056 6 0 0.0 0.0 0.00 0.00 0.00 62 1018.1
20260503013559 6 0 0.0 0.0 0.00 0.00 0.00 59 1018.2
20260503013116 7 0 0.0 0.0 0.00 0.00 0.00 60 1018.1
20260503012559 7 0 0.0 0.0 0.00 0.00 0.00 59 1018.1
20260503012055 7 0 0.0 0.0 0.00 0.00 0.00 57 1018.1
20260503011600 7 0 0.0 1.6 0.00 0.00 0.00 58 1018.1
20260503011058 7 0 0.0 1.6 0.00 0.00 0.00 58 1018.0
20260503010556 7 0 0.0 1.6 0.00 0.00 0.00 55 1018.0
20260503010058 8 0 0.0 3.2 0.00 0.00 0.00 55 1018.0
20260503005600 8 0 0.0 4.8 0.00 0.00 0.00 53 1018.0
20260503005100 8 0 0.0 8.0 0.00 0.00 0.00 51 1018.0
20260503004605 8 311 1.6 8.0 0.00 0.00 0.00 51 1018.0
20260503004100 8 320 1.6 6.4 0.00 0.00 0.00 51 1017.9
20260503003559 8 0 1.6 6.4 0.00 0.00 0.00 49 1017.9
20260503003105 9 309 1.6 6.4 0.00 0.00 0.00 50 1017.9
20260503002600 9 310 1.6 6.4 0.00 0.00 0.00 49 1017.9
20260503002059 9 321 1.6 6.4 0.00 0.00 0.00 50 1017.9
20260503001559 10 320 1.6 6.4 0.00 0.00 0.00 48 1017.8
20260503001059 10 352 1.6 9.7 0.00 0.00 0.00 46 1017.8
20260503000559 10 327 3.2 14.5 0.00 0.00 0.00 48 1017.7
20260503000104 10 328 3.2 17.7 0.00 0.00 0.00 47 1017.8
20260502235559 10 327 3.2 17.7 0.00 0.00 0.00 43 1017.8
20260502235059 10 325 6.4 19.3 0.00 0.00 0.00 44 1017.6
20260502234617 10 317 6.4 19.3 0.00 0.00 0.00 43 1017.6
20260502234056 11 315 6.4 14.5 0.00 0.00 0.00 44 1017.7
20260502233559 11 317 8.0 14.5 0.00 0.00 0.00 44 1017.5
20260502233106 11 331 8.0 14.5 0.00 0.00 0.00 44 1017.4
20260502232555 11 335 6.4 19.3 0.00 0.00 0.00 43 1017.6
20260502232059 11 291 8.0 19.3 0.00 0.00 0.00 44 1017.5
20260502231605 11 305 6.4 17.7 0.00 0.00 0.00 43 1017.5
20260502231059 11 298 4.8 11.3 0.00 0.00 0.00 46 1017.5
20260502230558 11 325 4.8 11.3 0.00 0.00 0.00 43 1017.7
20260502230058 11 352 1.6 11.3 0.00 0.00 0.00 43 1017.8
20260502225602 11 50 1.6 14.5 0.00 0.00 0.00 42 1017.8
20260502225059 11 31 6.4 14.5 0.00 0.00 0.00 42 1017.8
20260502224604 11 344 3.2 14.5 0.00 0.00 0.00 44 1017.9
20260502224127 11 48 3.2 14.5 0.00 0.00 0.00 45 1017.9
20260502223604 11 343 1.6 11.3 0.00 0.00 0.00 44 1017.8
20260502223107 11 325 4.8 11.3 0.00 0.00 0.00 42 1017.8
20260502222600 11 321 3.2 14.5 0.00 0.00 0.00 43 1018.0
20260502222100 11 339 3.2 19.3 0.00 0.00 0.00 42 1018.0
20260502221603 11 327 6.4 19.3 0.00 0.00 0.00 44 1018.0
20260502221101 11 17 9.7 19.3 0.00 0.00 0.00 44 1018.0
20260502220604 11 338 3.2 17.7 0.00 0.00 0.00 43 1018.1
20260502220106 11 352 8.0 14.5 0.00 0.00 0.00 46 1017.8
20260502215601 11 322 6.4 17.7 0.00 0.00 0.00 47 1017.9
20260502215100 11 306 4.8 20.9 0.00 0.00 0.00 45 1017.8
20260502214615 10 77 6.4 20.9 0.00 0.00 0.00 43 1018.0
20260502214100 11 27 9.7 20.9 0.00 0.00 0.00 45 1018.0
20260502213600 11 334 6.4 22.5 0.00 0.00 0.00 45 1017.9
20260502213123 10 292 11.3 22.5 0.00 0.00 0.00 45 1017.8
20260502212601 10 347 9.7 20.9 0.00 0.00 0.00 44 1017.9
20260502212059 10 352 8.0 20.9 0.00 0.00 0.00 47 1017.8
20260502211602 10 317 9.7 20.9 0.00 0.00 0.00 47 1017.9
20260502211102 10 5 11.3 20.9 0.00 0.00 0.00 46 1017.8
20260502210601 10 319 11.3 17.7 0.00 0.00 0.00 49 1017.9
20260502210059 10 337 8.0 20.9 0.00 0.00 0.00 45 1017.8
20260502205602 11 324 11.3 20.9 0.00 0.00 0.00 45 1017.9
20260502205108 11 312 6.4 16.1 0.00 0.00 0.00 48 1017.8
20260502204559 11 81 4.8 17.7 0.00 0.00 0.00 48 1017.9
20260502204104 10 316 3.2 25.7 0.00 0.00 0.00 45 1017.8
20260502203600 11 85 8.0 25.7 0.00 0.00 0.00 44 1017.9
20260502203117 11 345 14.5 25.7 0.00 0.00 0.00 49 1017.9
20260502202605 11 317 14.5 30.6 0.00 0.00 0.00 47 1018.1
20260502202100 11 316 12.9 30.6 0.00 0.00 0.00 46 1018.0
20260502201559 10 297 12.9 22.5 0.00 0.00 0.00 44 1018.0
20260502201103 10 320 9.7 22.5 0.00 0.00 0.00 48 1018.1